Wind_Speed
6 11 14 16 15 16 19 21 22 22 21 21 21 22 22 22 23 24 23 24 24 25 25 24 22 21 20 19 18 17 17 17 18 19 19 18 18 18 18 17 17 17 17 16 14 11 9 9 11 11 11 11 11 10 9 8 7 7 6 7 7 7 8 7 8 9 8 9 10 12 10 9 8 6 12 14 10 9 9 9 9 9 10 10 8
5 7 10 15 17 17 18 19 20 21 21 21 22 23 23 23 25 25 24 24 25 26 26 26 25 23 22 21 20 19 19 19 19 20 20 19 19 19 19 18 17 18 18 17 16 14 11 10 10 10 10 11 11 10 9 9 8 7 7 7 7 8 8 7 7 6 6 7 8 9 8 10 8 6 15 15 8 11 10 7 9 8 9 11 8
4 5 7 12 15 17 19 18 19 20 20 21 22 23 24 25 26 25 24 25 25 26 26 26 25 23 23 22 20 20 20 20 20 20 20 20 20 20 20 20 19 18 18 19 18 17 14 12 11 10 10 11 11 11 10 9 8 7 6 7 7 8 8 7 7 5 6 8 5 3 2 6 5 5 16 15 8 12 10 8 10 8 9 11 7
5 5 6 9 10 14 17 16 16 18 19 21 23 24 26 26 26 25 25 24 25 25 26 25 24 22 22 21 19 18 18 18 18 20 20 20 20 20 20 20 20 19 18 19 19 19 17 14 13 12 11 11 11 11 11 10 8 7 7 8 8 10 9 7 7 6 7 7 3 2 1 2 2 3 14 13 10 12 9 9 11 9 10 9 7
7 7 7 8 9 12 14 14 14 17 19 22 24 25 26 27 26 25 25 25 24 24 25 24 23 21 20 18 16 15 16 16 17 20 21 21 21 21 21 21 21 20 19 18 19 19 19 16 15 14 13 12 12 11 11 10 9 8 9 9 9 10 9 8 8 7 7 7 4 2 1 1 1 3 8 7 12 14 9 12 12 10 11 8 7
6 7 7 8 10 11 12 13 14 17 19 22 24 25 26 26 25 25 25 25 24 24 24 24 23 21 20 18 16 15 17 19 19 20 21 21 21 20 20 21 21 21 20 18 19 19 19 17 15 15 15 14 12 11 11 11 10 9 9 9 9 9 9 10 10 8 7 7 4 2 2 3 3 5 4 3 11 13 10 14 13 12 13 8 7
6 6 6 7 8 9 11 14 17 18 19 20 22 23 24 24 24 25 26 26 25 24 24 24 23 22 21 20 20 18 19 21 20 19 19 19 20 20 20 20 21 22 21 19 18 19 19 17 15 15 16 15 13 12 12 11 10 10 10 10 9 10 10 10 10 9 7 6 5 4 4 5 5 5 2 1 5 7 12 16 14 15 14 9 9
6 7 7 7 9 11 14 17 18 18 18 19 20 22 22 23 24 25 26 26 25 25 25 25 24 24 22 21 21 21 22 22 19 17 17 18 19 20 20 20 21 22 22 19 18 19 18 17 15 15 17 17 15 13 13 12 11 11 11 11 10 10 10 10 9 8 7 7 7 6 7 6 6 6 5 4 2 2 9 12 14 18 15 11 10
6 7 7 7 10 14 16 16 15 16 16 18 19 20 21 22 23 24 26 26 25 25 26 26 25 24 23 22 22 22 23 22 19 17 17 18 19 20 19 19 20 21 21 20 18 18 18 16 15 15 17 18 17 15 14 13 12 13 13 11 10 10 10 10 10 9 9 9 8 8 8 8 9 6 3 3 3 2 3 4 10 15 15 14 11
6 7 6 8 12 15 15 14 13 14 15 17 19 19 20 21 22 23 24 25 24 25 25 25 25 24 23 23 23 23 22 21 19 17 17 17 19 19 19 19 19 20 21 20 18 18 18 16 15 15 16 17 18 17 15 14 13 14 13 11 10 9 9 9 9 10 10 10 10 10 10 9 8 4 2 3 3 4 3 3 7 8 9 12 12
4 4 4 7 11 13 14 14 13 13 13 13 15 17 19 20 22 23 22 21 21 22 25 25 24 24 22 22 23 23 22 20 19 18 17 17 18 18 19 19 19 20 20 20 18 18 18 17 16 15 16 17 18 18 17 15 14 14 13 12 10 9 9 10 9 10 11 11 11 11 11 10 8 5 7 8 5 4 3 3 6 7 6 9 12
3 3 3 5 7 11 13 14 15 15 13 12 12 15 18 19 21 20 18 18 19 20 24 24 23 23 21 21 22 22 21 20 20 20 19 18 18 17 18 19 20 20 20 19 19 19 18 17 17 16 16 17 18 18 17 15 14 14 14 13 12 11 10 11 10 10 11 11 10 10 11 11 11 10 11 12 10 8 5 3 5 7 5 7 11
3 3 3 4 5 8 12 14 15 16 14 13 14 14 15 18 19 18 17 17 19 19 23 24 22 22 21 20 21 21 21 21 20 20 20 19 19 18 18 19 20 21 21 20 19 19 18 18 18 17 17 17 18 18 16 15 15 15 15 15 14 13 11 11 10 10 10 10 10 11 11 12 13 13 13 13 12 10 6 3 4 4 3 5 8
3 3 4 3 4 7 10 12 14 16 14 14 16 14 13 14 16 16 15 17 17 17 20 22 21 20 19 19 20 20 21 21 20 20 20 19 19 19 19 19 20 22 22 21 19 18 19 19 18 18 18 18 18 18 16 15 15 15 15 15 16 14 12 10 10 9 10 11 12 12 12 12 13 12 13 14 13 11 8 5 4 4 3 4 5
3 3 3 3 4 6 9 11 13 16 15 15 16 14 12 12 13 15 15 15 15 15 18 21 20 19 19 19 19 20 20 20 20 20 20 19 19 19 19 19 20 21 22 22 20 19 19 19 18 18 19 19 19 18 17 17 16 15 15 15 16 15 13 11 11 11 12 13 13 13 13 12 12 12 13 13 13 12 11 9 6 3 2 2 2
3 3 3 4 5 7 9 11 13 16 16 16 16 16 14 13 12 14 14 14 14 15 17 18 19 19 19 19 19 19 20 20 20 19 19 19 18 18 19 19 19 20 21 22 21 21 20 19 19 18 19 20 20 19 19 18 17 16 15 15 16 15 13 13 13 13 14 15 14 13 13 12 11 12 12 12 12 10 10 10 8 4 2 1 2
4 4 4 4 6 8 9 11 12 15 16 16 16 16 16 14 12 11 12 13 13 15 16 17 18 18 18 18 18 18 20 20 20 18 17 17 18 18 18 17 17 18 19 21 21 21 22 21 20 20 19 20 20 21 20 19 19 18 17 16 16 16 14 14 14 14 15 15 14 13 12 12 11 11 11 11 11 9 8 8 8 6 4 2 1
4 4 3 4 5 7 9 10 11 13 14 14 14 14 15 15 13 11 11 12 13 14 15 16 17 17 17 18 17 17 19 20 20 18 17 17 18 18 18 18 17 16 17 18 18 19 20 20 21 20 20 19 20 21 21 20 19 19 19 18 17 17 16 15 15 16 16 16 15 13 12 12 12 12 12 12 11 9 7 6 6 7 6 5 4
3 3 3 3 5 7 8 9 9 10 10 11 11 11 12 14 14 12 10 10 11 12 14 15 16 17 17 17 17 16 17 18 19 19 18 17 18 18 19 20 18 16 16 16 17 17 18 18 19 20 20 20 20 21 22 21 20 20 20 20 18 18 18 18 17 18 18 16 15 14 13 13 12 13 13 13 12 10 8 7 7 8 8 8 7
4 4 3 3 4 5 6 6 7 7 8 8 8 8 10 11 12 11 9 8 9 11 13 14 15 16 16 17 18 18 18 18 18 18 19 18 17 18 19 21 21 19 18 17 17 17 18 18 19 20 21 21 20 21 21 22 21 21 21 20 19 18 19 20 19 18 18 17 16 15 14 13 12 13 13 13 13 12 10 9 8 9 8 7 7
3 3 3 2 3 4 4 4 4 4 5 6 5 5 6 6 7 7 7 7 8 9 11 13 14 15 15 17 18 18 18 18 17 17 18 17 16 17 18 19 20 21 20 19 19 19 19 19 19 20 21 21 21 21 20 21 22 22 21 21 21 20 21 21 20 19 18 17 16 16 15 14 13 13 13 14 14 13 12 11 9 7 6 6 6
3 3 3 3 4 6 7 6 6 5 6 6 5 4 3 2 3 4 5 6 7 8 9 11 13 14 15 16 17 17 17 17 17 17 18 17 16 16 16 18 19 20 20 21 21 21 20 20 20 21 21 20 20 20 20 21 22 22 22 22 21 22 22 22 21 20 19 18 18 17 16 15 14 15 15 14 13 13 13 12 9 7 6 6 5
3 4 4 4 6 9 10 9 8 8 8 7 7 6 4 3 2 3 5 5 5 6 8 10 12 13 14 14 14 16 17 17 18 18 19 19 18 17 16 17 18 19 19 20 20 21 21 21 21 21 20 20 20 20 20 21 22 23 23 23 22 22 22 22 22 22 21 20 19 19 17 16 15 16 16 15 13 13 13 11 10 9 8 7 6
4 4 4 6 8 10 10 11 10 9 8 8 6 6 5 4 4 4 5 5 5 6 8 10 12 12 12 12 13 15 16 18 19 19 19 19 19 19 18 18 17 17 19 19 18 19 20 21 22 22 22 21 20 20 21 22 23 24 24 25 24 23 22 22 22 22 22 21 20 20 18 17 16 17 16 15 14 13 13 12 11 10 9 8 8
5 5 5 6 7 8 9 10 10 10 9 8 7 5 5 4 3 4 4 4 4 5 6 8 10 11 11 11 12 13 14 16 18 19 20 19 18 17 17 18 17 17 18 19 19 19 20 22 23 24 24 23 22 21 22 23 24 24 25 25 25 24 23 22 22 22 22 22 21 20 19 17 17 16 15 14 13 13 14 13 11 9 8 9 9
6 6 5 5 5 6 8 10 10 10 9 8 6 5 4 3 2 2 3 3 3 4 5 6 7 8 10 11 12 12 13 14 15 16 17 18 18 17 17 17 17 17 18 20 20 20 21 22 23 24 25 25 25 24 24 24 24 25 25 25 24 25 25 23 23 22 23 23 22 21 19 18 17 17 16 14 13 13 13 13 11 9 8 8 8
6 6 5 5 5 6 7 9 10 10 9 7 5 4 3 2 1 1 2 3 3 5 5 5 6 7 8 9 10 11 11 12 14 15 16 16 17 18 18 18 18 17 17 19 20 21 20 21 22 23 24 25 26 26 26 26 25 26 26 25 25 26 26 25 24 23 24 24 23 22 20 19 18 17 16 15 14 13 13 13 11 9 9 8 7
5 6 6 6 5 5 6 9 10 10 8 6 4 2 2 1 1 2 3 4 5 6 6 6 6 7 7 8 9 9 10 10 11 13 15 15 15 15 17 17 18 18 17 17 17 18 19 20 21 22 24 25 26 27 27 27 27 26 26 26 26 26 26 26 25 24 24 24 24 23 21 21 19 18 16 15 14 13 13 13 12 10 9 8 8
6 6 6 6 6 5 6 8 10 9 7 5 3 2 1 1 1 2 4 5 7 8 8 7 7 6 6 8 8 8 8 8 9 10 12 14 14 15 15 16 17 18 20 19 18 17 17 18 20 22 23 25 26 28 28 28 28 28 28 28 28 27 26 26 25 24 24 24 23 22 21 21 19 18 16 15 14 13 13 14 13 12 11 9 8
7 7 6 6 6 5 7 9 9 9 7 5 3 2 2 2 2 2 3 5 6 7 7 7 7 6 6 7 7 7 7 7 8 10 11 13 15 16 16 16 16 17 20 21 21 21 19 17 17 19 21 23 26 27 28 29 29 29 29 28 28 28 28 26 26 25 25 24 23 22 22 21 19 18 16 15 14 13 13 13 13 12 11 10 9
7 6 5 5 5 6 7 9 10 10 8 5 3 3 3 4 4 4 3 4 4 5 5 6 7 8 8 9 8 8 8 8 8 10 11 13 15 16 17 17 17 18 19 19 20 22 23 21 19 18 18 20 22 25 27 28 29 29 29 29 28 29 29 28 28 26 26 26 25 24 23 22 20 18 16 14 13 11 11 12 11 10 9 9 9
7 6 6 6 6 6 7 9 11 10 8 5 3 3 4 4 5 5 5 4 3 4 5 6 7 8 10 11 11 11 11 10 9 10 10 11 12 13 14 16 17 18 19 19 19 20 21 22 22 21 20 19 19 21 23 26 28 28 29 29 29 29 30 30 29 29 28 28 26 25 24 23 22 19 16 14 12 11 10 10 9 9 8 8 9
8 7 7 7 7 8 10 11 11 9 7 5 4 3 4 5 5 6 6 5 5 5 5 6 7 8 10 11 13 14 14 14 13 12 12 11 11 11 12 13 15 16 17 17 18 18 19 20 21 22 23 23 21 19 19 21 24 26 27 29 30 30 31 31 31 31 30 29 28 27 25 24 24 20 16 16 16 13 10 9 10 10 9 9 9
7 7 6 6 7 10 12 12 10 8 6 5 4 4 4 5 5 5 5 6 7 7 7 8 8 8 9 10 12 14 15 16 15 15 15 14 13 13 12 12 13 14 15 16 17 17 18 18 19 20 21 22 23 21 19 19 20 22 24 26 28 30 32 33 33 32 31 30 29 28 27 27 25 21 19 19 19 16 14 14 13 12 10 9 7
7 6 6 7 10 12 12 11 10 9 7 6 5 4 4 5 4 4 5 6 7 8 8 8 8 7 8 10 12 13 14 16 17 17 17 16 15 15 15 14 14 14 14 15 16 17 17 17 17 18 19 20 21 21 20 19 18 19 21 22 25 27 29 31 33 33 32 31 30 30 30 29 26 23 22 22 22 20 19 18 15 11 9 8 5
9 9 9 12 15 15 14 13 11 9 7 6 5 5 4 4 4 4 4 5 6 7 7 7 7 8 9 10 11 12 13 14 16 17 17 16 16 16 16 16 16 15 15 15 15 17 17 17 16 17 17 19 20 20 21 21 19 18 18 19 22 24 26 29 31 32 32 32 32 31 30 30 27 24 24 24 24 22 21 20 16 13 12 10 8
9 11 14 16 17 15 14 13 11 9 7 6 5 5 5 5 4 3 3 3 4 4 4 5 7 9 10 11 11 11 11 12 13 14 15 16 15 16 16 16 16 17 17 16 15 17 18 18 18 17 16 17 18 19 20 21 20 19 19 18 18 20 23 27 30 32 33 34 34 33 32 31 28 26 26 26 25 24 24 23 19 17 15 13 12
13 14 15 16 16 14 13 12 10 8 6 5 4 4 5 4 3 2 1 1 0 2 4 5 8 9 9 10 11 11 10 10 11 12 13 15 16 15 15 14 14 16 18 18 16 16 17 18 18 17 17 17 18 19 19 20 20 20 19 17 16 16 19 25 29 30 30 30 30 31 31 31 30 29 28 28 27 26 27 26 24 22 19 16 14
16 19 19 18 15 14 13 11 9 7 5 4 4 4 3 3 2 2 2 3 2 2 6 8 8 8 8 9 10 10 9 9 9 10 12 13 15 16 15 14 14 14 16 16 15 14 15 15 15 16 17 17 18 18 18 19 19 18 17 17 14 12 15 22 26 28 29 30 31 31 29 29 30 30 30 31 31 31 30 29 26 24 21 19 17
15 17 19 18 16 15 14 11 8 6 5 4 4 3 3 2 2 3 4 5 3 3 6 8 7 7 8 8 9 10 10 9 9 10 11 11 12 14 15 15 15 14 13 14 14 13 14 13 13 15 15 15 15 15 15 16 16 16 15 14 13 14 17 20 24 28 30 30 31 32 32 31 31 32 33 34 34 33 32 30 29 26 23 22 21
18 18 18 18 17 15 13 10 8 6 5 4 4 3 3 2 2 3 5 5 2 2 5 6 6 6 6 7 7 9 10 9 9 10 10 10 10 11 11 12 14 15 14 13 12 12 12 12 12 11 11 11 12 13 14 14 14 14 14 13 15 22 25 24 24 26 26 26 29 32 32 32 32 32 33 33 34 34 32 30 28 26 26 26 25
17 17 18 18 16 14 12 10 8 6 5 4 3 3 3 3 4 4 4 3 1 1 4 6 6 6 5 6 7 7 8 8 8 9 9 9 9 8 7 7 8 9 10 10 9 8 8 8 6 6 6 7 9 11 13 14 14 14 14 14 17 23 25 24 23 25 26 28 31 30 26 26 28 30 31 33 35 34 33 32 29 27 28 30 29
16 16 18 19 17 14 13 11 8 6 4 3 3 4 4 4 4 4 3 2 2 1 3 5 5 5 5 5 5 5 6 7 8 8 8 8 9 8 6 5 3 1 3 4 4 5 5 4 2 3 3 5 7 9 12 14 15 16 16 16 16 16 19 21 23 25 26 26 25 23 19 19 23 29 32 35 38 37 34 33 34 34 35 34 34
16 17 18 19 17 15 13 11 8 6 4 4 4 4 4 4 4 4 3 3 3 1 2 3 4 5 5 4 4 5 6 7 7 8 8 9 10 9 8 8 7 7 9 9 9 8 8 8 9 9 9 9 8 9 10 11 13 14 14 13 12 12 15 19 20 19 18 16 13 12 13 14 20 28 27 22 28 39 43 42 41 42 41 40 38
17 18 19 18 18 17 15 11 8 6 5 5 5 4 4 3 3 3 3 4 4 1 1 3 4 5 5 5 5 5 6 7 8 9 11 11 11 11 11 11 11 11 12 12 12 12 12 13 13 13 14 14 12 11 10 10 9 9 8 7 6 6 9 11 10 5 4 5 6 7 5 7 15 25 24 14 7 14 31 42 45 46 46 44 40
17 18 18 18 18 17 15 13 9 7 6 4 3 4 5 4 2 2 2 4 4 3 4 5 5 6 6 7 7 7 7 8 8 10 11 12 11 11 12 12 12 13 13 13 13 14 14 15 15 15 15 16 16 15 15 14 14 13 12 10 7 4 5 7 9 14 16 16 19 22 24 24 23 23 29 33 30 25 24 25 26 29 34 39 39
19 19 19 19 18 16 15 13 10 8 6 4 3 4 5 4 3 3 4 6 5 5 6 6 7 7 8 8 9 9 9 8 8 9 10 12 12 12 12 13 12 12 12 13 14 15 15 16 16 15 16 17 18 18 18 17 16 17 17 17 18 18 18 19 22 26 28 28 29 31 33 35 34 32 35 40 39 33 30 31 27 22 22 27 33
18 20 20 19 18 17 15 14 12 10 8 6 6 7 7 5 4 5 7 7 6 7 7 8 8 8 9 10 10 10 10 11 11 10 11 12 13 13 13 13 12 11 12 13 13 14 14 14 15 16 18 20 20 19 18 17 17 19 20 22 24 26 27 29 31 32 33 34 36 37 37 37 37 37 38 40 41 39 36 31 25 20 18 20 24
18 19 20 20 18 17 16 14 12 11 9 8 8 9 8 6 6 8 9 8 7 8 9 8 9 9 9 10 10 10 11 12 13 14 15 14 13 13 14 14 12 11 12 14 15 15 15 15 16 17 19 22 23 20 18 19 21 24 26 27 28 29 30 30 31 32 33 34 35 36 35 35 35 35 36 36 38 39 35 30 25 22 17 16 19
18 18 18 18 17 16 15 14 12 11 10 10 10 10 9 8 8 9 9 8 9 9 9 8 8 9 9 10 10 11 11 11 13 16 19 19 17 15 15 15 14 13 14 15 17 18 18 19 22 22 23 25 26 24 23 25 27 28 29 30 30 31 31 31 31 34 36 35 34 32 29 28 30 30 28 29 31 33 32 28 25 22 20 19 20
18 17 16 15 15 14 14 13 12 11 11 11 11 11 11 10 10 10 9 9 9 9 9 9 9 10 10 10 10 11 11 13 14 16 18 20 21 21 19 18 17 17 18 19 21 22 23 24 27 29 29 29 29 29 29 29 30 30 30 30 29 29 30 30 31 35 36 32 30 28 25 24 26 27 27 27 28 29 29 28 25 23 22 22 22
Wind_Direction
172 181 177 175 183 191 193 196 200 201 207 211 209 209 209 209 209 209 209 211 210 209 211 213 214 216 222 227 228 231 233 232 233 234 235 233 233 237 237 235 233 229 227 227 231 232 232 235 232 237 244 246 249 251 261 265 270 287 290 290 289 293 298 303 326 334 335 342 341 337 338 348 -0 17 12 2 357 356 343 337 332 326 330 332 11
152 182 183 179 183 188 194 196 196 198 201 206 209 210 212 211 209 209 209 211 212 212 212 213 216 218 221 226 229 232 234 236 235 232 233 236 236 238 239 237 234 232 230 228 231 231 231 235 236 241 243 246 251 254 263 263 268 282 285 291 292 299 303 306 332 346 346 344 336 330 333 351 7 18 2 1 12 9 4 6 354 348 348 342 14
169 190 191 189 185 183 193 200 198 200 201 203 206 204 205 207 207 209 211 212 214 215 215 216 219 221 224 229 233 236 239 242 242 237 235 237 239 239 239 239 235 234 233 230 231 232 233 234 237 244 247 250 254 256 260 260 269 276 279 292 295 305 308 309 329 346 350 349 342 326 314 344 355 352 351 354 3 2 7 19 7 7 6 350 12
187 199 202 203 196 188 194 199 198 200 201 200 201 199 201 203 206 210 213 215 216 216 218 218 219 220 223 229 234 239 242 244 243 241 240 240 240 239 239 238 236 234 233 233 233 233 235 236 238 246 252 259 260 256 257 259 270 273 275 289 296 307 312 314 323 330 345 353 345 312 222 335 333 327 340 340 346 352 357 9 9 9 10 2 15
189 197 204 202 202 199 196 197 198 199 200 202 202 201 203 204 207 212 215 217 219 219 218 216 216 216 216 221 228 236 239 240 240 241 242 241 239 238 236 236 236 234 233 234 235 234 237 239 242 246 252 260 261 257 258 261 271 274 276 285 294 305 307 308 315 324 339 342 324 286 269 328 237 318 331 323 335 342 344 357 8 9 8 16 18
201 201 206 202 202 201 197 199 201 201 203 205 206 205 206 207 209 213 216 219 220 220 218 215 215 214 212 214 217 223 228 231 235 238 242 243 242 240 237 237 236 235 234 234 236 236 237 239 242 246 248 253 257 260 262 262 271 276 279 285 294 307 308 302 307 321 335 333 329 316 288 279 266 309 333 305 327 335 339 350 2 6 8 28 27
220 217 215 206 203 199 201 205 205 205 205 206 208 208 208 210 211 215 218 219 220 220 218 216 215 215 216 219 222 222 225 231 236 240 245 248 247 245 242 239 237 235 234 234 236 236 235 237 240 244 245 248 253 259 263 264 270 276 279 283 293 308 309 301 303 317 326 320 322 326 315 303 287 289 273 275 325 327 328 339 354 2 8 28 27
217 219 214 207 204 205 210 213 211 209 205 204 206 206 208 212 215 217 219 220 220 219 217 217 216 216 219 223 226 229 232 237 241 243 245 246 248 247 244 241 239 236 234 234 236 236 235 235 237 243 244 244 249 256 261 264 269 273 275 280 289 300 307 305 301 306 312 310 311 316 320 325 321 301 268 263 270 301 319 330 344 353 5 20 20
217 221 215 206 207 211 215 216 216 212 206 205 206 207 210 213 215 217 219 220 220 218 216 216 217 218 221 223 226 231 236 239 242 245 245 243 244 246 244 242 239 237 235 236 237 235 234 235 236 243 245 243 247 253 259 263 268 272 272 277 286 294 302 301 294 295 302 305 307 312 316 322 329 326 278 248 240 249 295 314 332 345 358 7 13
215 223 216 207 212 215 217 217 216 213 208 208 208 208 213 215 215 216 217 218 219 219 217 215 215 217 219 222 225 230 234 236 239 244 245 243 243 244 243 240 238 236 235 237 238 235 234 236 238 243 247 246 246 250 256 261 266 270 271 275 283 294 303 298 287 290 298 301 303 305 309 316 323 323 293 293 271 247 256 279 310 331 341 348 -0
203 209 195 198 207 209 209 209 209 206 202 205 208 211 214 217 218 215 213 219 220 219 218 215 213 215 218 221 224 228 232 233 235 240 242 242 242 242 240 237 234 232 234 238 238 236 235 236 240 246 250 249 246 247 252 257 262 266 269 274 280 290 302 300 288 286 294 299 303 304 306 312 311 293 293 305 294 252 260 279 303 320 312 322 347
175 167 160 168 180 187 193 196 199 197 190 191 201 212 218 220 223 214 203 218 230 223 220 216 211 214 217 220 225 228 231 233 236 240 241 241 241 240 237 236 233 230 233 238 236 235 238 239 241 246 250 248 243 243 246 251 256 262 267 270 275 284 296 298 287 284 291 296 301 305 307 310 309 305 303 304 296 282 279 269 294 319 315 315 341
170 159 163 161 163 177 184 186 192 192 188 190 193 202 216 221 228 218 195 207 228 225 222 218 211 214 218 222 228 230 232 236 239 242 244 243 242 241 237 236 234 231 232 236 236 237 240 242 243 245 247 244 239 238 243 249 254 259 266 268 269 276 289 292 282 278 287 292 298 301 302 305 308 312 313 308 301 292 284 273 289 310 297 309 339
173 169 175 181 178 180 183 184 190 192 192 200 200 202 216 220 229 230 208 205 218 222 224 223 216 218 222 226 231 231 233 237 239 242 245 245 245 243 241 238 236 234 234 236 239 242 244 244 244 246 247 243 238 239 243 248 253 258 264 265 264 267 278 283 276 275 283 290 296 297 297 302 306 310 313 311 305 295 286 283 293 310 298 300 337
171 176 190 199 190 181 179 180 190 198 201 211 216 218 223 222 228 237 227 215 215 218 225 227 223 222 225 228 232 233 235 237 239 242 244 244 245 245 244 242 239 237 237 239 243 246 247 245 244 246 247 244 240 240 244 247 250 256 261 262 258 259 267 272 271 276 284 291 293 290 291 300 307 312 316 315 309 300 294 292 290 299 312 316 328
175 183 200 209 199 189 185 182 189 201 211 222 228 227 223 220 223 235 237 229 222 219 226 232 230 226 226 228 232 235 235 235 236 239 241 242 244 245 245 243 241 239 239 241 245 248 249 247 246 247 247 245 242 240 246 249 249 252 258 260 254 253 262 267 268 274 284 293 292 286 287 295 307 318 319 316 313 307 298 293 287 271 261 325 320
184 189 193 197 197 196 195 194 194 201 212 223 229 229 224 219 220 229 237 235 229 225 229 234 232 229 229 229 233 236 234 233 233 234 236 240 243 244 245 242 240 238 238 241 244 248 250 250 250 250 249 247 244 243 247 251 251 251 255 259 255 253 260 265 266 272 283 292 290 284 285 292 304 314 316 317 315 309 299 295 291 274 246 236 298
184 180 172 178 188 195 200 204 208 210 218 226 232 233 229 225 228 234 240 239 237 234 233 234 233 230 231 233 235 236 235 236 236 235 234 237 241 243 243 242 238 235 234 238 241 244 247 249 250 251 251 249 246 246 250 253 255 255 256 260 259 256 261 265 266 270 279 287 287 284 285 290 297 301 303 312 313 304 300 303 301 287 258 233 223
177 167 160 174 181 191 199 207 216 218 225 232 234 236 234 232 235 241 248 246 243 243 239 238 238 234 234 238 238 235 235 238 239 238 236 235 239 242 242 243 241 236 232 232 236 240 244 247 249 250 252 251 249 248 250 254 258 259 259 261 262 261 263 267 268 270 275 283 286 285 285 287 292 293 293 301 304 298 293 295 297 293 277 255 238
178 170 165 172 172 183 194 207 219 219 225 231 231 235 238 237 239 245 255 254 249 248 247 246 244 240 239 240 239 236 236 237 237 237 236 235 239 242 243 245 245 242 237 233 235 240 245 247 249 251 253 253 252 250 251 254 259 262 262 264 266 267 267 268 271 272 274 282 286 283 283 285 289 291 290 292 294 291 286 285 291 291 284 272 252
169 163 155 146 142 145 156 180 195 196 204 213 215 221 228 237 247 256 262 262 258 254 254 255 252 247 245 244 243 241 239 237 236 234 233 235 238 242 245 247 247 245 243 240 239 240 244 247 248 250 253 254 253 252 254 258 261 264 266 268 269 271 270 270 272 273 274 280 283 281 280 282 285 288 291 289 287 284 283 282 282 283 282 280 258
157 150 139 131 131 129 132 145 154 157 165 174 181 187 196 224 255 268 269 269 269 265 262 261 257 253 252 250 250 248 243 238 236 234 233 234 236 240 245 248 250 250 249 246 244 242 241 243 244 247 251 252 252 253 256 261 264 266 268 270 270 269 270 270 270 271 273 277 279 278 278 280 282 285 288 288 282 279 280 277 272 275 283 282 260
137 134 132 129 127 126 126 128 130 132 136 142 151 158 164 180 204 243 261 269 274 274 271 266 261 258 256 256 255 254 250 245 240 239 239 239 240 240 242 246 251 255 254 251 248 245 242 241 242 244 248 250 251 252 256 260 265 267 270 272 271 268 267 268 268 269 272 275 276 276 277 280 281 283 285 285 282 279 276 269 265 275 286 282 275
128 126 120 121 121 121 120 120 120 122 126 133 141 147 157 176 200 229 253 268 274 272 272 270 267 263 260 259 261 260 257 253 250 249 248 248 248 246 243 243 246 252 255 255 252 247 246 247 246 246 249 251 253 254 256 260 264 267 270 272 272 268 264 264 265 267 270 273 274 274 277 281 281 282 284 283 281 277 270 262 263 274 281 280 286
134 129 124 125 125 125 126 127 128 129 132 136 138 141 145 158 192 231 254 270 275 274 279 279 273 268 264 262 262 262 261 259 258 256 255 255 255 253 248 244 244 248 251 252 251 248 247 248 249 250 252 254 257 259 260 261 264 266 269 270 268 265 262 260 260 263 266 269 270 272 276 278 278 278 281 282 280 275 265 257 259 267 271 279 291
151 145 141 139 134 135 136 137 139 139 142 142 140 142 143 147 176 243 270 270 266 271 284 293 289 282 277 273 269 265 263 265 266 264 263 262 261 259 256 249 245 248 251 250 249 248 247 248 249 251 253 255 257 260 263 265 266 267 267 267 265 262 260 258 257 259 262 265 268 270 273 274 273 273 276 278 277 269 258 252 254 257 263 276 283
156 150 145 143 143 146 144 144 145 145 147 150 149 150 157 180 219 272 293 289 284 281 287 300 308 308 303 298 292 285 280 275 272 271 271 270 266 261 261 256 246 244 249 251 250 250 252 253 255 256 256 256 256 259 262 265 267 268 267 266 264 261 260 258 256 257 260 263 266 268 270 270 270 271 273 274 272 262 251 247 246 247 254 262 261
159 155 153 154 153 152 147 146 146 145 149 154 158 166 166 187 248 282 294 300 299 296 299 307 313 315 316 317 316 310 306 297 284 275 269 268 268 266 265 262 252 244 245 251 253 255 258 260 261 262 260 259 258 258 260 262 264 267 267 266 264 262 261 259 259 259 261 264 266 267 267 267 268 271 271 273 271 260 247 242 238 236 241 244 244
170 170 168 163 158 158 156 151 146 145 153 162 172 198 222 240 282 290 290 296 301 302 306 311 318 322 319 318 319 317 317 316 303 285 271 269 274 276 274 269 260 252 248 250 254 257 260 261 262 262 262 260 259 259 260 261 263 265 265 265 264 262 261 259 258 260 262 264 266 268 267 265 267 269 268 271 270 258 247 242 237 235 236 235 237
178 178 178 169 163 165 162 156 152 155 163 175 191 227 271 287 306 313 299 300 304 308 314 318 324 332 329 325 325 325 322 315 305 296 288 281 277 276 274 270 266 260 254 252 253 254 255 258 260 262 261 261 260 261 262 263 263 264 264 264 262 261 260 258 256 256 259 261 264 265 263 262 263 263 262 264 263 254 247 242 238 238 238 236 236
184 180 177 169 163 163 162 160 160 166 172 179 201 246 277 286 298 306 309 312 309 311 323 330 329 328 327 328 330 329 323 315 304 301 301 297 287 279 276 272 270 266 261 258 256 254 253 254 258 262 264 265 265 265 266 266 265 265 264 263 262 260 259 257 254 253 254 257 260 260 258 257 257 257 254 252 249 241 236 234 234 236 236 234 233
183 179 176 171 169 167 166 165 166 172 178 183 201 241 264 273 286 294 300 306 305 311 323 329 329 325 322 322 323 322 321 317 310 306 309 310 303 294 287 281 277 272 267 263 261 259 257 256 259 262 264 268 272 273 271 268 266 267 265 263 261 260 258 256 253 252 252 254 256 255 254 253 253 252 247 235 224 222 227 228 224 221 220 226 232
181 182 181 176 175 171 167 167 170 177 185 192 207 229 248 263 279 290 295 297 300 310 317 320 324 324 322 321 318 315 314 313 311 307 305 305 303 298 293 289 286 281 275 269 266 264 263 260 260 262 263 265 269 276 279 274 268 266 266 264 260 258 257 256 254 253 252 251 251 250 249 250 251 248 238 222 214 215 213 203 200 201 204 218 230
182 183 177 166 166 167 166 167 171 179 185 194 212 231 247 261 278 289 290 294 300 309 318 323 325 328 331 328 321 317 315 313 312 310 304 299 294 290 287 284 284 284 280 276 272 269 268 265 264 265 266 266 266 269 276 279 276 270 267 266 263 259 257 256 255 253 252 250 250 247 245 247 247 239 226 216 213 210 199 188 189 194 201 215 229
186 178 165 161 161 162 164 166 170 178 186 197 214 235 249 254 265 276 283 295 307 315 323 329 334 340 340 335 328 325 321 317 315 313 308 300 292 288 285 281 278 277 277 276 274 273 272 271 270 270 270 269 266 264 266 271 277 277 272 268 265 260 256 255 254 253 252 251 251 248 245 245 240 230 221 216 212 206 195 187 187 189 192 197 194
188 173 164 167 167 165 166 167 171 178 187 199 215 230 239 240 241 258 287 306 317 324 332 340 346 346 339 333 329 325 321 318 316 315 312 307 298 291 286 282 278 275 273 272 271 271 272 273 273 273 273 271 268 264 262 262 267 274 276 272 268 262 256 253 254 255 255 254 253 250 246 242 235 226 221 216 211 206 197 189 184 176 171 167 155
173 165 166 167 167 167 167 168 170 178 190 203 217 223 218 219 230 257 294 314 324 333 345 351 346 339 335 333 330 324 318 315 312 310 309 307 303 297 292 286 281 277 273 270 268 267 269 272 272 270 270 273 272 267 264 262 262 266 272 274 274 269 259 253 252 255 257 256 253 250 246 240 232 224 217 212 211 206 197 188 177 163 157 151 142
145 149 157 162 165 165 165 168 170 177 194 208 213 207 201 208 222 233 250 261 349 8 3 352 340 335 337 337 331 324 320 316 311 307 304 300 298 296 294 288 281 277 274 271 268 266 265 265 264 265 267 272 274 270 266 265 264 264 266 271 277 276 263 254 251 253 254 253 252 252 248 239 231 223 214 210 209 202 194 186 174 161 153 144 139
150 154 158 161 163 161 162 169 172 176 193 203 197 195 203 216 211 180 163 164 146 45 5 348 335 329 329 329 325 324 326 325 319 313 307 302 296 291 289 285 279 276 276 272 267 263 260 254 253 260 266 270 273 272 269 268 267 267 268 269 271 269 260 254 251 250 249 250 252 252 248 241 234 225 215 210 207 201 193 184 173 162 152 145 145
154 157 158 160 161 161 165 171 172 175 187 190 188 204 220 218 197 173 165 162 141 47 355 338 331 327 323 324 327 328 328 331 330 323 316 311 302 293 290 286 277 271 269 268 264 256 251 247 249 256 262 265 269 271 270 269 269 270 271 270 266 261 258 255 252 248 247 250 253 252 247 241 235 228 221 214 205 198 189 179 173 168 158 149 147
156 156 157 158 162 168 170 169 169 176 188 190 194 217 223 193 163 159 163 163 142 13 338 334 339 333 324 329 337 335 331 334 338 334 326 322 314 303 297 292 281 268 259 256 254 244 233 234 241 246 250 255 263 268 270 270 272 272 269 264 261 260 260 259 251 244 243 248 254 254 248 241 234 227 221 211 200 195 188 179 176 173 162 150 144
150 153 158 159 161 168 166 161 167 178 186 197 210 220 215 196 171 164 173 185 197 310 334 345 348 341 340 349 350 346 347 349 350 347 342 340 336 324 314 308 291 269 247 235 231 219 208 210 221 234 249 263 271 278 283 284 284 280 270 261 257 256 258 257 248 241 241 245 248 248 244 238 231 225 219 209 199 192 186 180 174 162 150 145 140
145 153 162 162 160 163 162 160 168 178 181 198 211 206 203 199 189 184 197 213 202 261 336 346 353 355 4 7 356 358 9 9 5 7 8 6 7 5 4 9 14 56 136 143 153 163 160 147 99 50 5 329 313 307 304 302 298 291 281 274 268 257 253 251 244 240 242 244 243 241 238 231 222 214 210 206 199 190 180 172 164 152 144 142 136
151 157 165 165 160 159 160 160 166 173 171 172 180 182 186 197 209 228 241 220 202 230 349 9 18 16 17 16 10 19 32 30 27 32 36 36 38 39 43 51 60 73 82 80 77 84 88 78 61 49 38 23 6 352 341 329 317 306 297 292 283 262 246 241 235 232 235 237 240 247 247 232 209 196 191 195 198 189 174 162 154 148 143 139 131
155 159 165 167 164 160 160 160 165 168 166 169 182 193 202 206 218 245 243 214 199 191 60 54 44 40 44 44 40 44 48 48 48 49 48 50 53 54 56 63 69 75 78 76 73 73 72 69 64 59 55 53 50 44 39 32 16 358 347 332 299 256 230 221 210 185 153 136 107 91 108 154 172 173 161 127 100 154 154 148 146 144 140 135 128
154 159 165 166 163 161 162 161 161 164 165 174 202 212 210 205 198 207 203 186 174 139 95 78 69 70 73 67 61 60 59 58 59 60 59 59 61 63 64 65 68 74 78 77 76 76 75 73 72 68 67 68 69 71 72 72 71 67 64 65 73 97 135 140 114 92 89 96 96 92 94 95 98 112 119 107 87 66 64 82 103 119 127 129 128
161 163 166 165 161 162 165 163 160 158 158 162 169 168 167 166 162 160 158 155 145 120 97 86 80 77 76 73 66 64 66 67 67 71 73 71 69 70 70 68 67 72 77 78 79 80 81 82 81 78 76 76 78 80 82 84 88 90 90 93 96 99 103 105 103 100 101 103 103 100 98 95 92 90 94 99 100 89 72 65 66 71 89 111 122
163 165 166 166 165 166 169 168 163 154 150 150 147 141 138 134 132 143 147 140 126 111 101 92 82 76 73 72 69 68 74 77 75 77 79 76 73 73 72 70 71 77 82 86 89 90 90 92 90 88 86 83 80 80 82 86 91 93 94 97 99 100 101 103 103 105 107 107 107 106 103 100 99 100 98 97 99 101 100 99 98 91 85 98 114
163 167 170 171 172 173 173 171 167 159 153 151 148 146 146 136 130 144 151 142 124 114 104 91 82 77 75 75 75 76 78 79 77 76 74 72 72 75 76 76 79 87 96 101 103 102 102 102 98 94 92 88 83 80 84 92 96 97 97 98 98 98 100 102 103 105 105 102 100 98 99 99 100 100 101 103 104 105 107 110 115 117 117 118 120
162 168 173 175 176 178 175 171 171 169 164 159 157 160 164 154 144 153 158 148 132 119 104 89 82 80 82 85 85 83 83 83 81 81 80 79 77 77 79 82 86 93 101 105 106 106 107 107 102 97 96 96 94 95 98 99 98 98 99 98 98 99 101 101 103 104 101 96 93 90 91 97 102 102 101 102 105 110 115 119 123 128 133 131 126
162 165 169 173 174 174 173 171 174 176 172 167 166 172 178 172 161 162 163 153 141 127 106 93 89 88 91 94 91 89 92 92 90 90 89 88 85 83 83 87 94 99 101 101 102 103 103 102 101 101 102 103 104 104 104 102 101 100 101 100 99 100 101 101 102 101 96 90 91 91 88 90 96 100 101 104 108 113 118 123 127 132 134 134 132
Height
784 785 786 787 789 790 792 793 795 796 797 800 801 802 803 804 807 809 810 811 812 813 815 816 817 819 820 821 822 823 824 825 826 827 828 830 831 832 833 834 835 836 838 839 840 840 841 841 842 843 843 844 845 845 845 845 845 845 844 844 844 844 844 843 843 842 840 839 838 837 837 836 835 834 833 832 831 831 830 829 828 827 826 826 828
785 785 785 787 788 789 791 792 794 795 796 798 800 801 802 803 806 807 808 809 810 812 813 814 815 817 818 819 820 821 823 824 825 826 827 829 830 831 832 833 834 836 837 838 839 839 840 841 842 842 843 844 844 844 845 845 845 845 844 844 844 844 844 843 843 841 840 840 838 838 837 836 834 833 833 832 831 831 830 829 828 827 826 825 827
786 785 785 786 787 788 791 792 793 794 795 797 799 801 802 803 805 806 806 807 809 810 811 812 814 816 817 818 820 821 822 823 824 825 827 828 829 830 831 832 833 834 836 837 838 839 839 840 841 842 843 843 844 844 844 845 845 844 844 844 844 844 843 843 842 841 840 840 839 840 839 837 836 833 832 832 831 831 830 830 829 827 827 825 826
787 786 785 785 786 787 788 790 791 793 795 796 798 799 801 802 803 804 805 806 807 808 810 812 813 815 817 818 819 820 821 822 823 824 825 826 827 828 829 830 832 833 834 835 837 838 838 839 840 841 842 843 843 844 844 844 844 844 844 844 844 844 843 842 841 841 840 840 840 841 840 840 841 836 832 831 830 831 830 830 829 828 827 826 825
785 785 785 784 786 786 787 789 791 792 793 794 796 797 798 800 801 802 803 804 806 807 809 811 813 814 816 817 819 820 821 821 822 822 823 824 825 827 828 829 830 831 833 834 835 837 838 839 839 840 841 842 843 843 844 844 844 844 844 844 844 844 843 842 841 840 840 840 840 841 841 843 842 837 834 832 830 830 830 829 829 828 827 826 825
783 783 783 783 785 786 787 788 790 791 792 793 794 795 797 798 799 801 802 803 805 806 808 810 811 813 814 815 817 818 819 819 819 820 821 822 823 825 826 827 829 830 831 833 834 835 836 837 838 839 840 841 842 842 843 844 844 844 844 844 844 843 842 841 840 840 840 839 839 839 840 841 839 837 837 836 831 829 829 829 828 827 827 826 825
782 782 782 783 784 785 786 787 788 789 791 792 793 794 796 797 798 799 800 802 803 805 807 808 810 811 812 813 814 816 817 817 818 819 820 821 822 823 825 826 827 829 830 832 833 834 835 836 837 838 839 840 841 842 842 843 843 843 844 843 843 842 842 841 840 839 839 839 839 838 838 838 837 836 837 837 835 831 828 828 828 827 826 825 824
781 781 781 783 783 784 785 785 787 788 790 791 792 793 794 795 796 797 799 800 802 804 805 806 807 809 810 811 813 814 815 816 817 818 819 820 821 822 823 825 826 827 829 830 831 832 833 834 835 836 837 839 840 841 841 842 842 842 843 843 842 842 841 840 840 839 839 838 838 838 837 836 836 835 835 836 837 836 831 827 826 825 825 824 824
779 780 780 781 782 782 783 784 787 788 790 791 791 792 792 793 794 796 798 799 801 802 803 805 806 807 808 809 811 813 814 815 816 817 818 819 819 820 822 823 824 826 827 829 830 831 832 833 834 835 836 837 838 839 840 840 841 841 841 841 841 840 840 839 839 838 838 838 838 837 836 836 835 834 834 834 835 836 834 829 826 825 824 824 824
778 778 778 780 781 782 783 785 786 788 789 790 790 791 791 792 793 794 797 798 800 802 802 803 804 805 807 808 810 811 812 814 815 816 817 818 818 819 820 822 823 824 826 827 828 829 830 831 832 833 834 836 837 838 838 839 839 840 840 840 840 839 839 839 838 838 838 837 837 836 835 835 834 833 833 833 833 834 834 830 827 827 825 824 824
777 778 778 779 781 782 783 784 786 787 789 790 790 791 790 791 792 793 797 799 801 803 803 802 803 804 805 807 808 810 811 813 814 815 815 816 817 818 819 820 822 823 824 826 827 828 829 830 831 832 833 834 835 836 837 838 838 839 839 839 839 838 838 838 837 837 837 837 836 835 835 834 834 833 832 833 832 832 832 830 828 827 827 825 824
777 778 778 779 780 781 783 783 785 786 787 789 790 791 791 790 791 793 798 801 802 804 805 802 802 802 803 805 807 808 810 811 812 813 814 815 815 816 818 819 820 822 823 824 825 826 828 829 830 831 832 832 833 834 835 836 837 837 837 837 837 837 837 837 837 836 836 836 835 835 834 833 833 833 832 831 831 831 831 830 828 827 827 826 825
778 779 779 779 780 781 782 782 784 785 786 786 787 789 790 790 791 792 796 801 802 804 805 802 800 801 802 803 805 807 808 810 811 812 813 813 814 815 816 818 819 820 821 822 824 825 826 827 829 829 830 831 832 833 834 835 835 835 836 836 836 836 836 836 835 835 835 835 834 834 833 833 832 831 831 830 830 829 829 829 828 828 827 826 825
778 779 779 779 780 780 781 782 783 784 785 786 786 787 788 789 790 791 794 798 800 802 805 803 800 799 800 801 803 805 806 808 809 810 811 812 813 814 815 816 817 819 820 821 823 824 825 826 827 828 829 830 830 831 832 833 833 833 834 834 834 834 835 834 834 834 834 834 833 833 832 832 831 831 830 829 829 828 828 828 828 827 827 826 825
778 779 779 779 780 781 782 783 782 783 784 785 785 786 787 788 789 789 791 794 796 799 801 801 799 798 799 800 801 803 804 806 807 808 809 810 811 812 813 814 815 817 818 820 821 823 824 825 826 826 827 828 829 830 831 831 832 832 832 832 832 833 833 833 833 833 833 833 832 832 831 831 830 830 829 829 828 828 827 827 827 828 828 827 825
778 779 779 778 779 781 782 783 783 783 783 784 785 785 786 787 788 788 790 792 793 795 797 797 797 796 797 798 800 801 803 804 805 806 807 808 810 810 811 812 813 815 817 818 820 821 822 823 824 825 825 826 827 828 829 829 830 830 830 830 830 831 831 831 831 831 831 831 831 830 830 830 830 829 829 828 827 827 827 827 827 827 829 829 827
778 778 778 778 779 780 782 783 784 783 784 784 784 785 786 786 787 788 789 790 791 792 793 793 794 794 795 796 798 800 801 802 803 804 805 806 808 809 810 810 811 813 814 816 817 819 820 821 822 823 824 824 825 826 827 828 828 828 828 828 828 829 829 829 829 829 829 829 829 829 829 829 829 829 828 827 826 826 826 826 826 826 827 829 829
777 777 778 778 778 780 781 782 783 784 784 784 784 785 785 786 787 787 788 788 789 789 790 791 792 793 794 795 797 798 800 801 802 803 804 805 806 807 808 809 809 811 812 813 815 816 818 819 820 821 822 822 823 824 825 826 826 826 826 827 827 828 828 827 827 827 827 828 828 827 828 828 828 828 827 827 826 825 825 825 825 825 825 826 826
777 777 778 778 778 780 780 781 782 783 784 784 784 785 784 785 786 787 788 787 787 787 788 790 791 792 793 794 795 797 798 800 801 802 803 803 804 805 806 808 808 809 810 811 813 814 815 817 817 819 820 820 821 822 823 824 824 824 825 825 826 826 826 826 826 826 826 826 826 826 826 826 826 826 826 826 825 824 825 824 824 824 824 824 824
777 777 777 777 778 780 780 781 782 782 784 784 784 785 784 785 786 787 787 786 786 787 787 789 790 791 792 793 794 796 796 798 799 800 801 801 802 803 804 806 807 808 809 809 810 812 813 814 815 816 817 818 819 820 821 822 822 822 823 823 824 824 825 824 824 825 825 825 825 825 825 825 825 825 824 824 824 823 823 823 823 823 822 823 822
777 777 777 777 778 779 780 781 782 782 783 783 784 784 784 785 786 786 786 786 786 787 787 788 789 790 791 792 793 794 795 796 797 798 799 799 800 801 802 804 805 806 807 807 808 809 810 812 813 814 815 816 817 818 819 819 820 820 821 821 822 822 823 823 823 823 823 824 824 823 823 823 823 823 823 823 822 822 822 822 822 822 821 822 821
777 776 777 778 777 779 780 780 781 782 782 783 783 784 784 785 785 785 785 785 786 787 787 788 788 789 790 790 791 793 793 794 795 796 796 797 798 799 800 802 803 804 805 805 806 807 808 809 810 811 812 813 814 815 816 817 818 818 819 820 820 820 820 821 821 821 822 822 822 822 822 822 822 822 821 821 821 821 820 820 820 820 820 820 820
777 776 777 778 777 779 780 780 781 781 782 783 783 784 784 785 785 785 785 785 786 787 787 787 787 788 789 789 790 791 792 793 794 794 795 795 796 797 798 799 801 802 803 803 804 805 806 807 808 809 810 811 812 813 814 815 815 816 817 817 818 818 818 819 819 819 820 820 820 821 821 821 821 821 820 820 820 820 819 819 819 819 819 819 819
777 776 777 778 778 779 780 780 781 781 782 783 783 784 785 785 785 785 785 786 786 786 786 786 787 787 788 789 789 790 791 791 792 793 794 795 795 796 796 797 798 799 800 801 802 803 804 805 806 807 808 808 809 810 811 812 813 814 815 815 816 816 816 817 817 818 818 818 819 819 819 820 820 820 819 819 819 819 819 818 818 818 818 818 817
777 778 778 779 779 780 781 781 782 782 783 784 784 785 785 785 786 785 785 786 785 785 785 785 786 787 787 788 788 789 789 789 790 791 792 793 794 795 795 796 796 797 798 799 800 801 802 803 804 805 806 806 807 808 809 810 811 811 812 813 813 814 814 815 815 816 816 817 817 817 817 818 818 818 818 818 818 818 818 818 818 817 817 817 817
778 778 779 780 780 780 781 782 783 783 784 784 784 785 785 785 786 786 786 786 785 785 785 785 786 786 786 787 787 787 788 788 789 789 790 791 792 792 793 794 795 795 796 797 797 798 799 800 801 802 803 804 805 806 807 807 808 809 809 810 810 811 812 812 813 814 814 815 815 815 815 816 816 816 816 816 817 816 816 816 817 817 817 817 817
777 778 779 780 780 781 782 782 783 784 784 785 785 785 786 786 786 785 785 785 785 785 785 785 785 785 785 785 785 786 787 787 787 787 788 788 789 789 790 791 792 793 794 795 795 796 796 797 798 799 800 802 803 804 804 805 806 806 807 807 808 808 809 810 811 811 812 812 812 813 813 813 814 814 814 815 815 815 815 815 815 815 816 816 816
778 779 779 780 781 781 782 783 783 784 784 785 785 785 786 786 786 786 785 785 785 784 784 785 785 785 785 784 785 785 785 785 785 785 785 785 786 787 787 788 789 791 792 793 793 794 794 795 796 797 798 799 800 801 802 802 803 804 804 805 805 806 806 807 808 809 809 810 810 810 811 811 812 812 812 813 813 813 813 813 814 814 814 815 815
778 779 779 779 780 781 782 783 783 784 784 784 785 785 785 786 786 786 785 785 785 784 784 784 784 785 784 784 784 784 783 783 783 783 783 784 785 785 786 786 787 788 789 790 791 792 792 793 793 794 795 796 797 798 798 799 800 801 802 802 803 803 804 805 805 806 806 807 807 808 808 809 810 810 811 811 812 812 812 812 812 812 813 814 814
777 777 778 779 780 781 782 782 783 784 784 784 785 785 785 785 785 786 785 785 784 784 783 783 783 784 784 783 783 783 782 782 782 782 783 783 783 784 784 784 785 785 787 788 789 790 790 791 791 792 793 793 794 795 795 797 797 798 799 799 800 801 801 802 802 803 804 804 805 806 806 807 808 808 809 809 810 810 811 811 811 811 812 812 812
775 776 777 778 780 781 782 782 783 784 784 784 785 784 785 785 785 785 785 785 784 784 784 784 783 783 782 782 782 781 781 781 781 781 781 781 782 782 782 782 783 784 785 785 786 787 788 789 789 790 791 791 791 792 793 794 795 795 796 796 797 798 798 799 799 800 801 801 802 803 804 804 805 806 806 807 808 808 809 810 810 810 811 811 811
774 775 776 778 779 780 781 781 782 783 783 784 784 784 784 784 784 784 784 784 785 784 784 784 784 783 782 781 781 780 780 780 780 780 780 780 780 780 780 781 781 782 783 783 784 785 785 786 787 788 788 789 789 790 791 792 792 793 794 794 794 795 795 796 796 797 798 799 799 800 801 802 803 803 804 805 806 807 808 809 809 809 810 810 810
772 773 774 776 778 779 780 780 781 782 783 783 784 784 784 784 783 784 784 784 784 784 784 784 784 784 783 782 781 779 778 778 778 779 779 779 779 779 779 779 780 780 781 781 782 782 783 784 784 785 786 786 787 788 789 789 789 790 791 791 791 792 792 792 793 793 794 795 796 797 798 799 800 801 802 803 804 805 807 807 808 808 809 809 809
770 772 773 775 777 778 779 780 781 782 782 783 784 783 783 783 783 783 783 783 783 783 783 783 783 783 783 782 781 779 778 777 777 777 777 778 778 778 778 779 779 779 779 779 780 780 780 781 782 782 783 784 785 786 786 787 787 787 787 788 789 789 789 789 789 790 791 792 793 794 795 796 796 797 798 800 802 803 804 805 806 806 807 808 808
768 770 773 775 776 777 779 779 781 782 782 783 783 783 783 783 783 784 783 783 783 782 782 782 782 782 782 781 781 779 778 777 776 776 776 776 776 777 777 777 777 777 777 777 778 778 778 779 780 780 781 781 782 783 784 784 784 784 784 785 785 786 786 787 787 787 788 789 790 791 791 792 793 794 795 796 798 800 801 803 804 805 806 807 807
765 767 770 772 774 776 778 779 780 781 782 782 783 783 783 783 783 784 783 783 783 782 782 782 782 781 781 781 780 779 778 777 776 775 774 774 775 775 775 775 775 775 775 775 776 776 776 777 778 778 778 779 779 780 781 781 782 782 782 782 782 782 783 784 785 785 786 786 786 787 788 788 789 791 792 793 795 798 799 801 802 803 805 806 806
762 766 768 771 773 775 777 778 780 781 781 782 782 783 783 784 784 784 784 783 783 783 782 782 781 781 781 780 779 778 777 776 775 774 773 773 773 773 773 773 773 772 773 773 774 774 775 775 776 776 776 776 777 778 778 778 779 780 780 780 780 780 781 781 782 782 783 783 784 784 784 785 786 788 790 791 792 795 797 798 800 802 804 805 806
762 765 768 770 773 775 777 778 779 780 781 782 782 783 783 784 784 784 784 784 783 783 783 782 781 781 780 779 779 778 777 776 775 774 773 772 771 771 770 771 771 770 770 771 771 772 773 773 773 774 774 774 775 775 775 776 776 777 777 778 778 778 779 779 779 779 780 781 783 783 783 783 782 783 785 787 789 791 793 795 797 799 802 804 805
761 764 767 770 772 774 776 778 779 780 781 781 782 782 783 783 783 783 784 783 783 783 783 782 781 780 780 779 778 777 776 775 774 773 772 771 770 769 768 768 768 768 768 769 769 770 770 771 771 771 772 772 772 772 773 773 774 774 775 775 776 776 776 776 776 776 777 777 779 780 782 783 782 781 781 782 784 786 788 791 794 797 800 803 805
762 764 766 769 772 774 775 777 778 780 780 781 782 782 782 783 783 783 783 783 783 783 783 782 781 780 779 778 777 777 776 775 774 773 771 770 769 768 767 766 766 766 766 767 767 768 768 768 769 769 770 770 770 770 771 771 771 772 772 773 774 774 773 772 772 773 773 774 776 777 778 779 780 781 779 779 781 782 785 788 791 794 797 801 804
761 764 766 768 771 773 775 776 778 779 780 781 781 782 782 782 782 783 783 782 782 782 782 782 781 780 779 778 777 776 775 774 773 772 771 770 768 767 766 764 764 764 764 765 765 766 766 766 767 767 767 768 768 768 768 768 768 769 770 770 771 770 769 769 769 770 770 772 774 775 775 774 776 779 780 780 781 782 784 787 789 790 793 798 802
761 763 765 768 771 773 775 776 778 779 780 781 781 782 782 782 782 782 782 782 782 782 781 781 780 779 779 778 777 776 775 773 772 771 770 769 768 766 765 764 763 762 762 763 763 764 764 765 765 766 766 766 766 766 766 766 766 767 767 767 767 767 767 767 767 767 767 767 768 770 771 772 775 778 780 781 780 780 781 784 786 789 792 796 800
761 764 766 768 770 773 775 776 778 779 780 780 781 781 782 782 782 782 782 782 781 781 781 780 780 779 778 778 777 776 775 774 773 771 770 769 768 766 765 764 763 762 761 762 763 763 763 764 765 765 764 764 765 765 764 764 765 765 765 765 764 765 766 766 765 765 765 765 765 766 767 769 773 775 776 777 776 776 778 780 782 786 791 794 797
760 763 765 768 770 772 774 776 778 779 780 780 781 782 782 782 782 782 782 782 781 781 780 780 779 779 778 777 777 776 775 774 773 772 771 770 768 767 766 764 764 763 763 763 764 764 764 764 765 765 765 765 765 764 764 764 763 763 762 762 762 763 764 764 765 765 764 764 765 765 766 767 769 770 773 777 776 771 768 771 775 778 784 789 792
761 763 765 767 769 771 774 776 777 778 780 780 781 782 782 782 782 782 782 782 782 781 780 780 779 779 778 778 777 776 776 775 774 773 772 771 770 768 767 766 765 765 764 765 765 765 765 765 766 766 766 766 766 765 765 765 764 763 762 761 761 761 762 764 765 765 766 767 767 767 768 769 769 767 768 775 782 780 772 770 773 775 778 781 785
761 763 765 767 769 771 773 775 777 778 779 780 781 781 782 782 782 782 782 782 782 781 781 780 780 779 779 778 778 777 777 776 775 774 774 773 772 770 769 768 767 767 767 767 767 767 767 767 768 768 769 768 768 767 767 767 765 764 763 763 762 763 763 764 766 768 770 771 770 770 770 771 774 773 766 764 776 788 788 784 785 786 785 783 783
760 761 764 766 768 771 773 774 776 778 779 780 781 781 781 782 782 782 782 782 782 782 781 781 780 780 779 779 779 778 778 777 777 776 775 774 773 772 771 770 770 769 769 769 769 769 769 770 770 771 771 771 770 770 769 769 767 766 766 765 764 765 766 767 769 771 772 773 773 772 772 772 776 781 776 768 770 781 790 796 801 804 803 798 793
759 761 763 766 767 770 772 774 776 777 779 780 781 781 782 782 782 782 783 783 783 782 782 782 781 781 780 780 780 780 779 779 778 778 777 776 775 774 773 773 772 772 771 771 771 771 771 772 772 773 773 773 773 773 772 772 771 769 768 768 768 769 769 770 773 775 776 776 775 774 775 776 778 781 783 781 779 782 788 798 807 812 814 813 808
759 761 763 765 767 770 771 774 776 777 778 779 780 781 782 782 782 783 783 783 784 783 783 783 782 782 782 782 782 782 781 781 780 780 779 778 777 777 776 775 775 774 774 773 773 773 774 774 774 774 774 774 775 776 776 776 774 773 772 772 772 773 774 775 777 779 779 779 778 778 779 782 783 785 787 787 787 788 792 799 806 810 815 818 817
760 762 764 765 768 770 771 774 776 777 778 779 780 781 782 782 783 783 783 784 784 784 784 784 783 783 783 783 783 784 783 783 783 782 781 781 780 780 779 778 778 777 777 776 776 776 776 776 775 776 777 777 778 780 781 780 779 778 777 777 777 778 779 780 781 781 780 781 782 784 787 788 788 790 792 793 792 794 797 803 808 812 815 818 819
760 762 764 766 768 770 772 774 775 777 778 778 779 781 782 782 783 783 784 784 784 784 785 785 784 784 785 785 785 786 785 785 785 785 784 784 783 783 782 782 782 781 781 780 780 780 780 780 779 779 780 781 782 783 784 783 783 783 783 782 783 783 783 784 785 783 784 786 788 790 794 795 794 794 796 797 798 799 802 806 810 814 817 819 820